Temp
89 90 90 91 92 90 88 87 86 86 87 87 87 89 90 91 92 94 92 91 91 90 89 91 89 91 92 92 90 90 86 92 92 91 91 91 92 93 96 99 99 93 96
88 88 89 91 91 89 88 86 86 85 85 88 88 91 91 93 94 94 92 92 92 90 91 89 89 89 91 88 88 88 91 92 92 88 91 85 89 94 97 97 97 95 99
87 87 87 89 90 88 87 86 85 85 85 88 89 88 90 91 90 91 92 92 92 91 90 89 88 89 91 90 88 88 88 89 90 89 89 85 85 90 93 91 95 93 95
89 88 88 88 90 89 89 87 86 85 86 86 87 85 88 88 92 93 95 94 92 92 92 90 89 88 93 88 89 91 91 89 88 90 92 89 87 83 84 92 94 94 93
90 89 89 90 92 91 90 89 86 85 86 85 86 87 86 92 94 94 91 90 90 91 92 90 90 88 88 88 88 87 87 91 92 91 91 89 92 90 88 87 89 93 95
91 91 92 92 91 92 91 90 86 83 85 85 84 85 86 89 91 90 91 92 94 93 90 91 90 89 90 88 88 88 87 88 89 92 92 92 90 91 90 89 88 89 94
92 91 90 90 90 90 90 89 86 83 85 85 85 85 86 86 87 88 90 91 93 94 91 89 88 91 88 90 87 87 88 87 88 86 92 94 93 94 93 90 91 89 95
95 93 91 91 90 90 89 89 87 84 85 85 85 85 86 90 90 89 93 93 94 94 93 90 91 90 90 90 89 91 90 90 89 87 87 93 93 94 93 91 89 87 91
94 93 93 92 91 90 90 88 87 85 86 87 86 85 86 87 90 90 89 93 92 95 93 92 90 91 90 90 89 91 89 89 88 89 88 89 94 94 94 94 92 88 84
95 96 94 93 93 93 92 90 89 86 87 88 88 88 87 87 88 90 88 89 92 90 92 90 90 90 90 90 88 91 90 88 91 92 89 88 94 93 93 93 93 92 89
96 96 96 96 95 95 93 92 90 88 88 89 88 88 89 89 88 88 88 88 89 90 88 89 89 90 90 90 88 88 90 88 88 89 89 87 88 92 94 94 93 92 91
98 97 98 97 96 94 94 93 92 91 90 90 88 88 89 89 89 87 88 88 87 89 88 89 88 89 90 90 88 88 91 88 88 88 88 88 91 87 87 92 88 90 91
99 99 99 97 96 95 93 95 94 94 94 91 90 89 89 89 89 88 88 88 87 87 90 89 88 88 90 89 89 88 89 89 89 89 89 88 88 86 90 90 91 93 90
95 97 97 97 96 95 93 94 95 96 96 94 92 89 89 90 90 89 88 88 88 87 88 89 89 89 90 90 90 89 89 89 90 90 90 90 89 88 87 88 87 88 88
92 94 95 95 94 94 94 92 94 95 96 94 92 91 89 90 89 88 88 88 88 88 88 88 89 89 91 94 90 90 90 88 89 90 90 91 88 80 82 91 89 88 89
88 91 93 94 94 93 93 92 92 94 94 92 92 91 88 88 88 87 87 87 87 87 87 88 88 88 93 79 74 83 90 89 88 88 90 90 81 80 72 71 71 77 85
84 86 88 91 94 95 94 92 92 94 92 90 90 90 88 86 86 87 87 86 86 87 86 87 88 88 89 71 70 72 90 90 89 89 89 91 96 84 91 74 69 70 69
80 82 87 89 91 96 100 96 94 90 90 89 88 88 87 86 87 86 86 85 87 86 86 86 87 88 89 69 67 70 87 89 90 90 90 89 90 90 90 91 90 90 90
78 80 84 86 87 92 95 96 93 91 89 88 87 88 88 86 86 85 85 86 86 86 86 87 86 86 87 67 65 70 87 87 87 89 90 90 89 79 69 87 86 87 89
76 77 82 86 89 89 95 95 93 90 88 88 88 88 88 87 86 86 85 87 87 87 90 88 88 81 87 68 63 69 89 88 90 88 88 73 82 70 65 84 85 84 87
74 81 86 87 89 92 96 94 92 90 90 90 90 88 88 87 87 86 86 86 86 88 86 87 88 88 85 85 61 60 85 90 92 92 94 95 67 64 63 62 85 83 84
73 85 87 91 94 94 94 90 88 90 89 89 89 88 87 89 90 86 85 85 85 84 85 84 87 90 88 69 62 59 62 76 89 91 96 93 64 59 59 64 66 62 66
68 78 83 86 90 92 92 87 87 89 88 88 87 86 86 87 89 85 84 86 85 88 86 88 88 91 94 91 63 58 58 61 79 91 84 65 60 56 62 58 60 59 82
64 67 73 74 76 82 87 88 88 88 87 85 85 86 85 85 87 90 89 89 90 88 91 90 91 93 94 95 95 85 75 62 70 73 83 79 70 64 71 77 74 83 86
64 65 64 70 71 74 76 79 81 87 86 85 87 87 89 86 87 89 89 91 92 83 92 94 95 94 94 95 83 84 93 90 80 81 87 87 85 84 85 84 83 82 78
64 63 64 66 68 71 76 78 81 81 83 85 88 90 92 89 90 89 85 50 50 49 49 51 69 95 69 59 58 57 54 55 55 81 85 79 78 78 79 79 78 77 73
MSLP
1010.43 1011.40 1012.28 1012.93 1013.60 1014.46 1015.38 1016.15 1016.73 1017.28 1017.82 1018.05 1018.09 1018.07 1018.11 1018.40 1018.61 1018.66 1019.26 1019.68 1019.75 1020.25 1020.46 1020.50 1020.78 1020.68 1020.47 1020.40 1020.94 1020.96 1021.35 1020.91 1021.18 1020.91 1021.03 1021.56 1021.57 1021.31 1021.18 1021.12 1021.14 1021.66 1021.69
1009.73 1010.69 1011.54 1012.22 1012.96 1013.89 1014.82 1015.77 1016.43 1017.09 1017.63 1017.68 1017.78 1017.68 1017.80 1018.01 1018.19 1018.33 1018.94 1019.31 1019.57 1019.87 1020.04 1020.29 1020.58 1020.68 1020.52 1020.92 1021.09 1021.12 1020.69 1020.91 1021.21 1020.48 1020.37 1020.30 1020.82 1020.66 1020.68 1020.89 1021.08 1021.31 1021.36
1008.68 1009.89 1010.72 1011.34 1012.22 1013.03 1014.12 1015.05 1015.95 1016.62 1017.30 1017.34 1017.71 1017.94 1017.96 1018.06 1018.43 1018.40 1018.65 1018.93 1019.32 1019.58 1019.85 1020.32 1020.50 1020.66 1020.40 1020.73 1021.14 1021.20 1020.88 1020.49 1021.21 1021.35 1020.50 1020.26 1019.52 1020.13 1020.62 1021.08 1020.90 1021.28 1021.03
1007.88 1008.81 1009.77 1010.56 1011.14 1012.17 1013.36 1014.38 1015.34 1016.04 1016.75 1017.23 1017.20 1017.48 1017.35 1017.32 1017.52 1017.84 1017.99 1018.43 1019.05 1019.30 1019.60 1019.83 1020.31 1020.53 1020.44 1020.80 1020.78 1020.68 1020.66 1020.76 1020.50 1021.08 1020.97 1021.13 1020.91 1020.08 1019.73 1020.36 1020.61 1020.92 1020.95
1006.52 1007.42 1008.50 1009.49 1010.41 1011.50 1012.38 1013.51 1014.64 1015.42 1015.93 1016.57 1016.73 1017.14 1017.18 1016.98 1017.30 1017.56 1017.97 1018.40 1018.82 1019.09 1019.28 1019.64 1019.97 1020.43 1020.80 1020.78 1020.78 1021.13 1021.03 1020.83 1020.33 1020.43 1020.65 1020.97 1020.81 1020.91 1019.92 1019.40 1019.77 1020.30 1020.37
1005.29 1006.40 1007.59 1008.73 1009.64 1010.66 1011.61 1012.55 1013.68 1014.58 1015.41 1015.97 1016.54 1016.68 1016.77 1016.77 1016.88 1017.43 1017.64 1017.91 1018.19 1018.70 1019.14 1019.38 1019.75 1020.07 1020.09 1020.45 1020.70 1020.75 1021.00 1020.91 1020.89 1020.62 1020.60 1020.30 1020.09 1019.88 1020.05 1019.77 1019.84 1019.80 1019.83
1004.07 1005.27 1006.36 1007.42 1008.52 1009.43 1010.53 1011.61 1012.72 1013.63 1014.45 1015.23 1015.76 1016.18 1016.57 1016.89 1016.97 1017.31 1017.47 1017.35 1017.57 1017.84 1018.45 1019.13 1019.45 1019.48 1019.88 1019.99 1020.50 1020.76 1020.72 1020.89 1020.88 1021.20 1020.66 1020.54 1020.46 1020.39 1020.28 1020.18 1019.60 1019.74 1019.61
1002.82 1003.92 1005.01 1006.17 1007.26 1008.31 1009.50 1010.55 1011.47 1012.59 1013.46 1014.22 1014.94 1015.56 1016.03 1016.25 1016.66 1017.03 1016.81 1017.15 1017.17 1017.40 1017.76 1018.63 1018.84 1019.14 1019.36 1019.70 1020.01 1020.20 1020.26 1020.27 1020.80 1021.00 1021.03 1020.45 1020.40 1020.45 1020.42 1020.23 1020.04 1019.61 1019.18
1001.45 1002.48 1003.76 1004.87 1006.02 1007.10 1008.07 1009.18 1010.26 1011.37 1012.20 1013.03 1013.98 1014.72 1015.29 1015.66 1015.74 1016.22 1016.74 1016.83 1017.08 1016.98 1017.49 1018.00 1018.50 1018.64 1018.92 1019.23 1019.57 1019.76 1019.91 1020.13 1020.60 1020.58 1020.86 1020.76 1020.15 1020.30 1020.39 1020.34 1020.21 1020.09 1019.40
1000.40 1001.39 1002.53 1003.70 1004.78 1005.90 1007.11 1008.38 1009.26 1010.04 1010.84 1011.92 1012.85 1013.60 1014.24 1014.86 1015.38 1015.76 1016.18 1016.44 1016.58 1017.05 1017.07 1017.70 1018.04 1018.22 1018.46 1018.78 1019.24 1019.28 1019.62 1019.93 1020.02 1020.10 1020.24 1020.48 1019.98 1020.14 1020.34 1020.20 1020.13 1020.12 1019.91
999.19 1000.14 1001.13 1002.28 1003.43 1004.75 1005.95 1006.87 1008.16 1009.08 1009.82 1010.61 1011.52 1012.44 1013.14 1013.82 1014.68 1015.13 1015.61 1016.05 1016.44 1016.69 1017.10 1017.27 1017.62 1017.81 1018.10 1018.42 1018.85 1019.06 1019.04 1019.54 1019.80 1019.92 1019.95 1020.10 1020.21 1020.02 1019.78 1019.92 1019.95 1019.84 1019.74
998.06 999.29 1000.06 1001.42 1002.49 1003.50 1004.51 1005.45 1006.48 1007.52 1008.37 1009.23 1010.36 1011.18 1012.10 1012.88 1013.56 1014.29 1014.76 1015.41 1015.88 1016.26 1016.58 1016.82 1017.14 1017.38 1017.64 1017.97 1018.33 1018.60 1018.53 1019.07 1019.23 1019.41 1019.62 1019.66 1019.67 1019.94 1020.04 1019.76 1019.76 1019.55 1019.54
997.26 998.36 999.32 1000.16 1001.21 1002.30 1003.29 1004.04 1005.14 1005.90 1007.00 1008.22 1009.14 1010.03 1010.81 1011.69 1012.39 1013.20 1013.97 1014.59 1015.18 1015.59 1015.87 1016.20 1016.52 1016.80 1017.08 1017.41 1017.75 1018.06 1018.22 1018.40 1018.63 1018.80 1018.93 1019.11 1019.27 1019.34 1019.21 1019.30 1019.14 1018.92 1019.12
997.44 998.00 998.72 999.35 1000.29 1001.16 1002.22 1002.95 1003.81 1004.85 1005.74 1006.93 1007.95 1008.78 1009.47 1010.29 1011.26 1012.09 1012.96 1013.65 1014.26 1014.77 1015.10 1015.42 1015.80 1016.10 1016.45 1016.74 1017.04 1017.36 1017.67 1017.78 1017.92 1018.15 1018.30 1018.43 1018.62 1018.75 1018.90 1019.04 1018.98 1018.93 1018.78
997.96 997.99 998.32 998.83 999.60 1000.32 1001.13 1002.25 1003.11 1003.92 1004.61 1005.55 1006.57 1007.34 1008.44 1009.38 1010.26 1011.04 1011.84 1012.60 1013.21 1013.71 1014.21 1014.66 1014.99 1015.37 1015.66 1015.84 1016.27 1016.54 1016.88 1017.18 1017.26 1017.32 1017.57 1017.77 1017.89 1018.07 1018.25 1018.26 1018.14 1018.17 1018.15
998.72 998.72 998.70 998.66 999.08 999.72 1000.21 1001.10 1002.14 1002.76 1003.74 1004.37 1005.14 1006.32 1007.56 1008.39 1009.11 1009.99 1010.84 1011.63 1012.22 1012.69 1013.25 1013.66 1014.06 1014.46 1014.66 1014.80 1015.38 1015.86 1016.15 1016.46 1016.62 1016.65 1016.75 1016.98 1017.25 1017.56 1017.82 1018.04 1018.11 1018.16 1017.97
999.49 999.33 999.24 999.02 998.80 999.00 999.52 1000.07 1000.91 1002.01 1002.78 1003.56 1004.71 1005.52 1006.55 1007.38 1008.08 1008.98 1009.85 1010.50 1011.20 1011.79 1012.28 1012.71 1013.12 1013.48 1013.89 1014.17 1014.64 1015.19 1015.62 1015.64 1015.81 1015.95 1016.05 1016.12 1015.98 1016.40 1016.79 1017.02 1017.35 1017.47 1017.43
1000.36 1000.02 999.52 998.97 998.68 998.60 998.44 999.66 1000.60 1001.45 1002.22 1003.15 1004.09 1004.87 1005.62 1006.52 1007.38 1008.08 1008.71 1009.55 1010.30 1010.79 1011.36 1011.84 1012.26 1012.61 1012.91 1013.44 1013.98 1014.47 1015.02 1015.09 1015.03 1015.06 1015.27 1015.47 1015.51 1015.65 1015.84 1016.00 1016.04 1015.97 1015.80
1000.74 1000.24 999.67 998.98 998.52 998.13 998.09 998.36 999.57 1000.60 1001.56 1002.27 1003.15 1003.88 1004.58 1005.50 1006.49 1007.24 1007.90 1008.62 1009.34 1009.88 1010.31 1010.80 1011.26 1011.72 1012.04 1012.54 1013.20 1013.95 1014.27 1014.21 1014.22 1014.34 1014.50 1014.65 1014.79 1015.02 1015.38 1015.64 1015.37 1015.12 1014.79
1000.62 999.92 999.09 998.20 997.53 997.27 997.33 997.49 998.55 999.54 1000.24 1000.97 1001.95 1003.22 1004.19 1004.78 1005.38 1006.20 1006.89 1007.60 1008.30 1008.68 1009.12 1009.56 1010.09 1010.59 1011.03 1011.68 1012.29 1013.04 1013.24 1012.97 1013.00 1013.25 1013.47 1013.80 1014.02 1014.25 1014.62 1014.83 1014.68 1014.20 1014.09
1000.42 999.01 997.43 996.34 995.83 995.91 995.97 996.46 997.60 998.15 999.11 1000.78 1001.68 1002.56 1003.41 1004.10 1004.74 1005.58 1006.24 1006.79 1007.39 1007.69 1008.32 1008.61 1009.04 1009.53 1010.07 1010.49 1011.13 1011.94 1012.30 1011.85 1011.76 1011.76 1011.69 1012.05 1012.54 1013.26 1013.73 1014.01 1014.00 1013.70 1013.80
1000.38 998.21 996.90 995.41 994.98 995.13 995.54 996.34 997.28 998.42 999.54 1000.31 1000.98 1001.79 1002.72 1003.54 1004.22 1005.03 1005.78 1006.36 1006.89 1007.38 1007.67 1008.11 1008.26 1008.48 1009.17 1009.76 1010.24 1010.85 1011.39 1011.34 1011.17 1010.82 1010.64 1011.00 1011.50 1012.18 1012.78 1013.33 1013.60 1013.67 1013.71
1001.44 999.52 997.80 996.78 996.04 995.73 995.96 997.02 997.78 998.61 999.32 999.99 1000.58 1001.54 1002.42 1003.14 1003.55 1004.52 1005.14 1005.73 1006.34 1006.44 1006.93 1006.98 1007.18 1007.25 1007.46 1008.34 1009.05 1009.79 1010.36 1010.72 1011.14 1010.60 1010.43 1010.80 1011.38 1011.82 1012.25 1012.53 1012.77 1013.05 1013.15
1002.66 1001.23 999.85 999.15 998.40 997.69 997.37 997.68 998.31 998.76 999.34 999.83 1000.55 1001.22 1002.00 1002.76 1003.42 1004.15 1004.83 1005.16 1005.28 1005.82 1005.84 1005.98 1005.94 1006.08 1006.22 1006.54 1007.09 1008.57 1009.79 1010.33 1010.77 1010.89 1010.71 1010.73 1011.08 1011.27 1011.38 1011.51 1011.90 1012.06 1011.90
1003.60 1002.68 1001.93 1000.76 1000.28 999.95 999.80 999.51 999.09 998.97 999.30 999.62 1000.14 1000.69 1001.31 1002.34 1002.98 1003.73 1004.64 1004.57 1004.67 1005.71 1005.86 1005.55 1005.38 1005.22 1005.34 1005.62 1006.13 1006.61 1007.31 1008.10 1008.90 1009.58 1009.80 1009.80 1010.15 1010.33 1010.39 1010.57 1010.84 1011.10 1011.51
1004.22 1003.45 1002.83 1002.43 1002.23 1001.95 1001.37 1000.71 999.92 999.66 999.24 999.39 999.62 999.93 1000.34 1001.38 1002.16 1003.16 1004.80 1005.83 1006.02 1006.11 1006.13 1006.30 1006.04 1004.78 1005.52 1005.98 1006.31 1007.01 1007.58 1007.92 1008.19 1008.97 1008.76 1009.36 1009.70 1009.89 1010.05 1010.14 1010.34 1010.65 1010.91
Wind_Speed
23 22 21 21 19 18 17 17 16 14 11 10 10 9 8 7 6 5 5 6 5 5 5 4 5 4 3 2 4 5 5 4 3 5 5 3 3 5 2 2 1 6 2
24 23 23 22 21 20 19 18 17 15 13 10 9 8 8 7 6 6 6 8 8 6 6 3 6 5 4 4 4 4 4 4 5 3 2 5 7 4 4 2 2 1 0
25 24 24 24 22 22 21 19 18 17 15 12 9 7 7 4 6 6 7 8 9 8 6 6 2 6 5 7 7 6 4 7 5 4 6 2 1 2 5 5 3 3 4
24 25 25 25 24 23 20 20 19 18 16 15 12 13 11 10 8 7 7 7 9 9 8 7 6 5 2 2 6 5 3 5 6 4 4 4 5 3 3 4 4 4 5
25 26 27 25 24 23 21 20 19 18 17 16 13 13 13 10 8 8 8 7 8 9 9 8 6 5 5 6 3 3 5 5 4 5 4 3 3 1 6 2 5 5 4
24 25 25 24 23 22 22 21 20 18 18 17 18 15 14 11 10 10 9 8 8 9 9 9 7 6 5 6 5 4 5 5 3 3 3 4 3 3 3 3 3 3 2
23 24 25 24 24 25 24 22 21 21 20 20 19 18 16 14 12 11 10 9 8 7 10 10 9 8 8 6 7 6 5 6 5 5 5 4 4 3 3 3 3 3 0
22 24 26 25 25 26 26 25 23 21 22 21 19 16 17 13 13 13 10 10 9 8 8 10 10 10 9 8 6 7 7 6 6 6 6 5 5 4 4 5 5 5 4
22 25 26 26 25 26 26 25 22 23 23 23 18 17 17 17 14 13 13 10 9 8 9 11 12 11 11 10 8 7 7 5 6 7 7 7 6 4 4 5 5 5 6
20 21 24 26 25 26 25 26 26 25 24 23 20 18 19 18 15 13 13 13 12 12 10 12 13 12 12 11 10 8 8 8 7 7 7 7 6 5 5 5 5 5 6
19 20 22 24 25 23 24 26 25 25 24 22 21 20 19 19 17 16 15 14 14 12 13 12 12 13 12 12 11 10 8 10 9 9 8 9 7 7 6 6 6 6 7
19 19 21 21 23 25 24 26 26 26 25 22 20 21 19 19 19 17 17 15 15 15 15 13 13 14 13 13 13 13 12 12 11 11 11 11 9 10 9 7 7 8 7
17 17 18 20 21 24 24 25 25 26 24 22 23 23 22 21 19 18 18 16 16 16 16 15 14 14 14 13 14 13 13 12 12 12 12 12 12 11 10 9 9 9 9
12 14 15 17 20 21 22 21 24 24 24 24 23 22 22 21 20 18 17 18 16 16 17 16 15 15 15 15 14 14 14 13 13 13 13 13 13 13 13 11 11 11 10
9 14 17 17 17 19 20 21 23 22 23 22 24 22 20 19 19 18 18 17 17 16 17 16 16 16 15 13 16 15 15 14 14 14 14 15 15 13 13 10 11 10 10
6 6 9 14 17 20 20 20 21 22 22 21 23 20 19 19 19 18 18 17 18 17 16 17 17 17 13 14 14 15 14 15 14 14 15 14 11 13 12 13 14 13 12
8 9 10 12 14 19 19 22 22 21 22 21 20 20 20 20 20 19 18 18 18 17 17 17 17 17 17 13 16 16 16 15 14 14 14 14 13 14 15 15 18 17 17
9 11 12 13 15 17 20 19 21 21 20 20 20 20 20 20 18 19 19 17 17 17 16 17 16 16 15 14 16 16 18 15 16 15 15 15 15 14 14 14 15 15 14
12 13 14 16 16 16 18 19 20 21 20 21 21 21 21 20 19 19 18 17 16 16 16 16 17 17 16 16 18 15 16 17 17 16 17 16 16 15 12 16 16 16 15
13 15 17 18 19 19 19 21 22 22 22 23 22 19 18 19 19 18 18 16 16 16 15 17 17 18 18 15 18 18 14 15 15 15 16 16 19 12 12 15 16 16 15
14 15 16 15 17 17 20 19 21 24 21 20 20 19 19 18 17 16 15 16 16 14 16 16 14 16 17 16 18 19 16 14 14 14 13 14 19 20 19 16 16 15 12
15 11 6 7 7 12 16 17 18 15 16 17 18 17 17 16 15 16 15 15 14 14 14 14 13 13 15 15 15 20 22 16 14 14 12 12 12 15 16 13 14 14 13
14 13 6 5 4 8 12 16 13 14 16 16 15 16 17 16 13 15 15 13 14 13 14 13 13 12 12 13 19 19 20 21 15 13 10 5 5 8 9 13 12 9 9
15 14 12 13 12 9 5 8 10 13 14 15 15 14 14 14 13 12 12 12 13 13 13 13 13 12 12 12 12 13 11 15 13 17 14 12 7 7 8 5 9 9 9
12 13 14 11 12 12 12 11 7 11 12 12 12 12 11 13 12 11 6 10 10 3 11 12 11 11 12 11 11 10 11 12 14 12 11 12 12 12 11 9 10 7 6
13 12 14 15 14 14 15 15 14 12 4 10 10 10 10 11 10 11 8 11 8 9 9 10 6 9 5 6 9 7 3 7 13 9 9 7 7 8 8 8 7 6 6
Wind_Direction
185 184 192 189 189 187 188 192 194 185 188 191 193 191 195 189 197 204 185 189 201 170 170 178 163 197 209 85 172 161 173 138 135 159 143 119 258 180 184 144 110 110 181
186 189 192 193 193 189 192 192 196 191 199 195 203 201 201 191 203 193 173 188 184 183 185 143 166 178 148 177 172 210 158 147 168 261 181 180 168 197 219 158 193 63 98
189 191 193 196 194 193 194 194 196 194 199 205 195 191 199 207 198 187 187 182 186 186 201 184 144 180 232 181 194 205 210 166 180 277 304 192 19 156 151 181 226 148 223
196 191 195 198 198 196 193 197 197 196 194 201 193 197 198 199 198 195 189 171 192 190 188 200 178 194 204 217 193 203 220 268 177 181 229 334 356 309 145 174 201 223 223
195 197 198 197 199 197 197 196 197 199 198 192 214 195 219 203 195 202 172 217 178 201 201 202 194 178 192 228 191 181 239 183 279 221 175 194 207 255 315 88 142 192 225
198 200 198 198 200 198 199 197 195 199 200 196 201 205 203 222 207 204 194 203 199 189 207 203 206 190 201 202 208 204 212 252 245 241 250 228 232 180 234 250 198 355 144
197 197 197 197 198 199 199 198 195 199 198 200 201 204 211 209 212 202 212 212 210 207 182 206 204 198 204 204 197 193 204 205 211 214 224 237 263 301 305 302 296 286 272
200 201 197 198 199 199 198 199 192 198 198 199 204 203 203 209 214 210 226 214 224 214 212 198 212 212 204 207 201 207 226 184 203 211 246 258 244 253 263 285 309 291 235
204 201 200 198 198 199 196 196 195 195 197 199 198 202 202 213 211 219 210 223 222 231 221 215 217 214 213 208 199 231 204 219 212 205 218 242 253 234 249 256 266 287 294
204 204 200 201 200 200 199 197 198 197 197 198 200 202 204 207 216 213 220 221 223 222 233 217 223 220 215 210 207 216 208 214 218 227 198 237 251 226 238 252 251 254 270
203 204 203 204 202 200 199 199 199 199 200 199 198 204 206 207 210 215 216 221 222 212 220 217 218 215 211 209 209 226 234 209 220 233 228 226 244 255 238 228 248 252 254
200 205 203 202 201 201 200 199 198 199 199 199 198 198 202 206 206 212 214 215 217 214 216 215 213 216 217 211 214 217 223 220 225 226 227 232 229 227 242 252 249 263 264
216 208 202 200 204 199 205 201 199 201 196 197 198 203 204 203 207 206 213 208 212 214 218 217 214 214 216 215 216 221 225 227 228 230 228 230 231 235 247 238 250 238 235
222 211 209 206 202 204 200 205 203 200 199 194 199 201 201 201 204 204 206 210 207 212 216 216 216 218 217 217 219 218 227 229 228 231 231 230 230 233 234 237 242 249 264
219 213 214 208 205 202 199 200 205 201 200 192 199 200 199 198 198 199 201 205 206 211 216 214 216 218 219 218 218 224 225 228 232 235 230 231 234 235 238 242 233 246 248
252 229 233 218 208 212 205 197 201 201 200 195 199 194 192 195 197 196 197 200 204 208 211 216 216 217 222 209 205 220 226 230 233 237 239 244 225 227 231 240 256 271 267
274 267 255 236 234 214 212 203 200 197 197 198 195 194 191 197 196 194 195 199 202 206 210 215 216 217 221 204 198 201 229 233 231 234 240 243 242 221 243 224 226 238 243
288 279 269 256 243 240 218 212 195 200 194 196 194 195 191 196 195 195 196 196 200 205 208 214 216 217 218 199 196 196 221 233 242 239 236 240 250 254 252 247 250 248 244
294 279 272 264 259 243 232 205 198 196 193 194 195 196 192 190 193 197 196 197 201 203 207 213 215 217 224 195 196 191 222 232 237 241 242 242 244 243 222 247 258 260 262
304 288 271 256 242 231 222 205 195 194 197 195 195 192 193 193 193 194 194 195 199 204 208 212 214 216 223 199 196 195 226 229 235 233 236 230 244 243 211 238 252 258 261
305 286 272 254 236 218 207 194 191 199 196 191 192 192 193 195 193 193 194 194 199 203 208 213 216 219 216 222 192 190 220 233 231 238 241 238 207 218 224 221 249 259 281
327 306 281 240 204 189 196 178 194 185 187 190 193 188 190 194 192 193 193 198 200 206 205 213 218 218 225 217 193 192 208 226 237 245 243 243 192 200 217 219 238 248 258
344 1 35 50 160 179 169 180 182 182 183 189 186 187 191 193 191 192 193 196 200 210 209 209 216 220 212 221 206 194 201 218 236 242 249 323 139 201 210 221 234 221 243
9 358 39 45 43 44 127 158 167 180 183 184 185 186 189 191 201 188 197 206 203 208 217 215 217 217 217 217 213 203 199 221 215 243 258 258 281 279 283 266 204 223 236
11 15 17 41 56 57 54 53 47 176 183 177 181 181 186 186 186 206 207 211 210 276 221 221 217 216 218 217 214 217 199 202 204 215 223 228 227 235 240 242 243 235 224
9 20 23 27 35 37 50 44 44 45 83 159 169 174 180 164 188 180 164 67 67 28 22 355 332 227 117 85 162 187 226 92 140 191 223 216 229 229 229 233 224 210 196